Wheeler AAF, HI

1:31 AM HST on June 27, 2017 (GMT -1000)
Wheeler Army Air Field

Weather History for PHHI - April, 2014

Change the Weather History Date:

Monday, April 28, 2014

  Actual Average Record
Temperature  
Mean Temperature 72 °F -  
Max Temperature 80 °F 76 °F 81 °F (2016)
Min Temperature 63 °F 62 °F 60 °F (1998)
Cooling Degree Days 6    
Growing Degree Days 22 (Base 50)    
Moisture  
Dew Point 63 °F    
Average Humidity 75    
Maximum Humidity 93    
Minimum Humidity 57    
Precipitation  
Precipitation 0.07 in - - ()
Sea Level Pressure  
Sea Level Pressure 29.99 in    
Wind  
Wind Speed 6 mph (NNW)    
Max Wind Speed 13 mph    
Max Gust Speed 18 mph    
Visibility 10 miles    
Events Rain    
Averages and records for this station are not official NWS values.
T = Trace of Precipitation, MM = Missing Value Source: NWS Daily Summary

Daily Weather History Graph

Daily Weather History Graph

Search for Another Location

Airport or City:

Trip Planner

Search our weather history database for the weather conditions in past years. The results will help you decide how hot, cold, wet, or windy it might be!

Date:

Astronomy

Apr. 28, 2014 Rise Set
Actual Time 6:02 AM HST 6:56 PM HST
Civil Twilight 5:39 AM HST 7:19 PM HST
Nautical Twilight 5:12 AM HST 7:47 PM HST
Astronomical Twilight 4:44 AM HST 8:15 PM HST
Moon 5:42 AM HST (4/28) 6:48 PM HST (4/28)
Length of Visible Light 13h 40m
Length of Day
12h 53m
Waning Crescent, 0% of the Moon is Illuminated
Apr 28
Waning Crescent
Apr 28
New
May 6
First Quarter
May 14
Full
May 21
Last Quarter

Hourly Weather History & Observations

Time (HST) Temp. Heat Index Dew Point Humidity Pressure Visibility Wind Dir Wind Speed Gust Speed Precip Events Conditions
12:58 AM 63.3 °F - 60.8 °F 91% 30.01 in 10.0 mi NNW 4.6 mph - N/A   Clear
1:58 AM 63.5 °F - 60.8 °F 91% 29.99 in 10.0 mi NW 2.3 mph - N/A   Clear
2:58 AM 63.0 °F - 60.8 °F 93% 29.98 in 10.0 mi North 2.3 mph - N/A   Clear
3:58 AM 63.0 °F - 60.6 °F 92% 29.97 in 10.0 mi NW 4.6 mph - N/A   Clear
4:58 AM 63.5 °F - 60.1 °F 89% 29.97 in 10.0 mi NW 3.5 mph - N/A   Clear
5:58 AM 63.1 °F - 59.7 °F 89% 29.99 in 10.0 mi NNW 4.6 mph - N/A   Clear
6:58 AM 65.7 °F - 60.8 °F 84% 29.99 in 10.0 mi NNW 4.6 mph - N/A   Clear
7:58 AM 70.7 °F - 65.1 °F 82% 30.00 in 10.0 mi NNW 6.9 mph - N/A   Clear
8:58 AM 73.8 °F - 63.5 °F 70% 30.01 in 10.0 mi North 5.8 mph - N/A   Clear
9:58 AM 76.3 °F - 63.7 °F 65% 30.01 in 10.0 mi NNE 8.1 mph - N/A   Scattered Clouds
10:58 AM 76.3 °F - 64.0 °F 66% 30.01 in 10.0 mi NNW 12.7 mph - N/A   Mostly Cloudy
11:58 AM 78.3 °F - 64.8 °F 63% 29.99 in 10.0 mi NW 11.5 mph 18.4 mph N/A   Scattered Clouds
12:52 PM 80.6 °F 82.3 °F 64.4 °F 58% 30.00 in 10.0 mi North 12.7 mph - N/A   Light Drizzle
12:58 PM 79.9 °F - 64.4 °F 59% 29.98 in 10.0 mi North 10.4 mph - 0.00 in Rain Light Rain
1:20 PM 75.2 °F - 62.6 °F 65% 30.00 in 10.0 mi NNE 4.6 mph - N/A   Mostly Cloudy
1:23 PM 77.0 °F - 62.6 °F 61% 30.00 in 10.0 mi NNE 3.5 mph - N/A   Drizzle
1:35 PM 77.0 °F - 62.6 °F 61% 29.99 in 10.0 mi NNE 8.1 mph - N/A   Mostly Cloudy
1:37 PM 78.8 °F - 62.6 °F 57% 29.99 in 10.0 mi NNE 6.9 mph - N/A Rain Light Rain
1:47 PM 78.8 °F - 64.4 °F 61% 29.98 in 10.0 mi SE 8.1 mph - N/A   Mostly Cloudy
1:58 PM 77.4 °F - 65.8 °F 67% 29.97 in 10.0 mi ESE 8.1 mph - 0.00 in   Mostly Cloudy
2:43 PM 75.2 °F - 66.2 °F 73% 29.98 in 10.0 mi Variable 4.6 mph - N/A Rain Light Rain
2:58 PM 74.5 °F - 65.7 °F 74% 29.96 in 10.0 mi SSE 5.8 mph - 0.00 in   Light Drizzle
2:59 PM 75.2 °F - 66.2 °F 73% 29.97 in 10.0 mi Variable 4.6 mph - N/A   Overcast
3:09 PM 75.2 °F - 66.2 °F 73% 29.97 in 10.0 mi South 5.8 mph - N/A   Light Drizzle
3:24 PM 71.6 °F - 66.2 °F 83% 29.97 in 2.0 mi Variable 2.3 mph - N/A Rain Rain
3:29 PM 71.6 °F - 66.2 °F 83% 29.97 in 3.0 mi West 6.9 mph - N/A Rain Light Rain
3:37 PM 71.6 °F - 66.2 °F 83% 29.97 in 10.0 mi WSW 5.8 mph - N/A   Overcast
3:47 PM 71.6 °F - 66.2 °F 83% 29.97 in 10.0 mi North 6.9 mph - N/A   Mostly Cloudy
3:58 PM 73.2 °F - 65.1 °F 76% 29.95 in 10.0 mi North 9.2 mph - 0.07 in   Scattered Clouds
4:58 PM 74.1 °F - 62.2 °F 66% 29.94 in 10.0 mi North 10.4 mph - N/A   Partly Cloudy
5:58 PM 73.9 °F - 61.0 °F 64% 29.95 in 10.0 mi North 11.5 mph - N/A   Clear
6:58 PM 70.7 °F - 62.1 °F 74% 29.99 in 10.0 mi NNW 9.2 mph - N/A   Clear
7:58 PM 69.3 °F - 62.6 °F 79% 30.00 in 10.0 mi NW 8.1 mph - N/A   Clear
8:58 PM 68.0 °F - 62.6 °F 83% 30.02 in 10.0 mi NW 6.9 mph - N/A   Clear
9:58 PM 67.5 °F - 62.6 °F 84% 30.03 in 10.0 mi NW 5.8 mph - N/A   Clear
10:58 PM 67.1 °F - 62.4 °F 85% 30.03 in 10.0 mi NW 5.8 mph - N/A   Clear
11:58 PM 65.7 °F - 61.7 °F 87% 30.03 in 10.0 mi NW 5.8 mph - N/A   Clear